Terug naar catalogus

FENGYUN 1C DEB

ActiefPO
NORAD 31295·DEBRIS·🇨🇳 China

Gelanceerd May 10, 1999 vanaf Taiyuan Satellite Launch Center

Loading…

Volgende Passages (komende 24 uur)

TLE

VersSource: Space-Track

Epoch: Sep 13, 2026, 22:36 UTC

1 31295U 99025BPD 26256.94219196  .00000105  00000-0  99995-4 0  9998
2 31295  98.3380  61.0026 0077417 199.0395 160.7873 13.96915802993456

Volg FENGYUN 1C DEB in realtime met AllMySat

Download on the App Store